Starlink 32846

operational
NORAD ID: 62867 Int'l Des: 2025-022 Owner: SPXS Country: US Constellation: starlink
LEOCIRCULAR

Über Starlink 32846

Beschreibung wird geladen...

Live-Position

3D-Globus wird geladen...

Nächste Überflüge

Höhenverlauf

Altitude vs Time

uPlot chart will show altitude changes over time

Zweizeiliger Elementsatz

1 62867U 25022P 25259.18300113 .00029823 00000-0 10153-2 0 9996
2 62867 53.1552 220.0735 0001125 79.5205 280.5922 15.30190553 35185
Epoch: 16. Sept. 2025 • Age: 23 hours

Aktueller Status

Höhe 492.6 km
Geschwindigkeit 7.62 km/s
Subsatellitenpunkt -48.78°S, 46.2°E
Startdatum 2. Feb. 2025
Alter 0.6 years
Typ internet

Technische Details

Klassifizierung Payload
Masse 730.00 kg
Trockenmasse 700.00 kg
Gesamtmasse 730.00 kg
Länge 0.30 m
Durchmesser 4.10 m
Spannweite 29.00 m
Form Box + pan
Hersteller SPXS
Bus-Typ Starlink V2M
Phasenstatus In Orbit
Besitzer/Staat SPXS/US

Große Konstellationen

Loading constellations...